Showing default

ICEYE-X4, 44390

Orbit data source: Space-Track

ICEYE-X4, 44390 is a payload satellite owned by ICEYE (FI) in SSO that was launched on Fri, 05 Jul 2019 UTC via a SOYUZ-2-1B launch vehicle from the Vostochny Cosmodrome (VOSTO). Payload-class satellites include a variety of spacecraft equipped with specific instruments for various scientific and technological missions. These include communications satellites like Starlink; space stations such as the ISS; scientific satellites like the Hubble; Earth observation satellites from companies like Planet Labs, Umbra, and HawkEye 360; GPS; miniature CubeSats for education and research; and military/defense satellites.

Loading next visibility...
Identifier
44390, 2019-038D
Orbit
SSO
Country
Flag of FIFI / FIN
Related business
Manufacturer
ICEYE
Mission
Operational Commercial Radar Imaging
Bus & Motor
ICEYE, Unknown motor
Mass
80 kg wet, 80 kg dry
Launch date (UTC)
2019-07-05 (6 years ago)
Launch vehicle
SOYUZ-2-1B
Launch site
Vostochny Cosmodrome (VOSTO)
Object type
Payload
Rocket body
Debris
Shape & HBR
Box + 1 Pan, 1.6 m
Radar Cross Section
1.837 m², Medium (>0.1 m² and < 1m²)

Expand to show TLE details & history
Last TLE update: 9 hours ago

TLE from 9 hours ago
0 ICEYE-X4
1 44390U 19038D   25308.94969242  .00011281  00000-0  47673-3 0  9997
2 44390  97.8988 324.3611 0015615  14.2743 345.8930 15.23311918347594
Epoch: 2025-11-04T22:47Z
TLE epoch observation values (Epoch: 2025-11-04T22:47:33.425Z)
Latitude
-0.00005°
Longitude
-61.95754°
Altitude
488.528 km
Speed
7.627 km/s
True Right ascension
21h 37m 26s
True Declination
0° 00' 00"
Sunlit
Object was in daylight at epoch
Visualization orbit readout
Latitude
Unknown
Longitude
Unknown
Altitude
Unknown
Speed
Unknown
Apparent Right ascension
Unknown
Apparent Declination
Unknown
Sunlit
N/A
Visualization observer readout
Local Sidereal Time
03:47:01
Azimuth
Unknown
Elevation
Unknown
Doppler factor
Unknown
Orbital elements
Apogee altitude
503.571 km
Perigee altitude
482.113 km
Semi-major axis
6,870.979 km
Eccentricity
0.00156
Inclination
97.8988°
RAAN
324.3611°
Arg. of periapsis
14.2743°
True anomaly
345.8493°
Mean anomaly
345.893°
Eccentric anomaly
345.87116°
Mean motion
3.81079 °/min
Orbital period
94.47 mins
BSTAR
0.00047673
Loading maneuver chart data...
Computing Atmospheric mass density...

Documentation

Showing up to 5 results
|